Preview of NWS' New Version of Forecast
This preview is not operational and should not be used for support decisions.

Regional Weather Roundup (RWR)

Issued by National Weather Service (NWS)

                            
000
ASUS45 KABQ 172301
RWRNM 
NEW MEXICO REGIONAL WEATHER ROUNDUP
NATIONAL WEATHER SERVICE ALBUQUERQUE NM
500 PM MDT SAT AUG 17 2019

NOTE: "FAIR" MEANS FEW OR NO CLOUDS BELOW 12,000 FEET AGL WITH NO
       SIGNIFICANT WEATHER OR OBSTRUCTIONS TO VISION.

      THIS PRODUCT IS RELEASED AS TWO VERSIONS.  ONE VERSION NEAR
      THE TOP OF THE HOUR CONTAINING PRELIMINARY DATA FROM ALBUQUERQUE
      AND OTHER STATIONS.  A FINAL VERSION WITH ADDITIONAL DATA IS 
      ISSUED ABOUT 10 MINUTES AFTER THE HOUR.
 
NMZ501-503-504-510>518-180000-
NORTHWEST PLATEAU/NORTHCENTRAL MOUNTAINS
  
CITY           SKY/WX    TMP DP  RH WIND       PRES   REMARKS
FARMINGTON     FAIR      92  19   7 W16G29    29.98F                  
LOS ALAMOS       N/A     84  31  14 SW9G20    30.15S                  
SANTA FE       FAIR      88  36  15 SW12G23   30.07F                  
TAOS             N/A     84  28  13 W16G24    30.12F                  
ANGEL FIRE     FAIR      76  30  18 SW15      30.23S                  

$$
NMZ402-403-502-505>509-180000-
WESTCENTRAL MOUNTAINS/SOUTHWEST MOUNTAINS
  
CITY           SKY/WX    TMP DP  RH WIND       PRES   REMARKS
GALLUP         FAIR      88  23   9 W12G26    30.11F                  
GRANTS         FAIR      87  30  13 W12G20    30.12F                  
SILVER CITY    FAIR      91  37  15 W15G26    30.06S                  

$$
NMZ407-409-411-412-180000-
SOUTHERN DESERTS
  
CITY           SKY/WX    TMP DP  RH WIND       PRES   REMARKS
DEMING         FAIR      97  41  14 W16G23    29.95F                  
LAS CRUCES     FAIR      98  39  13 W16G25    29.95F                  
HOLLOMAN AFB   FAIR      98  38  12 NW9       29.92F                  
ALAMOGORDO     FAIR      99  36  11 W6G22     29.92F                  
T OR C         FAIR      97  36  12 SW9       29.95F                  

$$
NMZ519>523-180000-
CENTRAL VALLEYS/CENTRAL HIGHLANDS
  
CITY           SKY/WX    TMP DP  RH WIND       PRES   REMARKS
ALBUQUERQUE    FAIR      93  30  10 W9        30.00F                  
DOUBLE EAGLE   MOSUNNY   91  34  13 SW12G26   30.04F                  
CLINES CORNERS FAIR      86  34  15 SW17G32   30.14F                  
BELEN          FAIR      92  31  11 W8G17     29.98F                  
SOCORRO        FAIR      92  35  13 S6        29.96F                  

$$
NMZ524>526-539-540-180000-
SOUTHCENTRAL MOUNTAINS
  
CITY           SKY/WX    TMP DP  RH WIND       PRES   REMARKS
RUIDOSO        PTSUNNY   84  37  18 SE3       30.16S                  

$$
NMZ527>531-180000-
NORTHEAST HIGHLANDS/NORTHEAST PLAINS
  
CITY           SKY/WX    TMP DP  RH WIND       PRES   REMARKS
LAS VEGAS      FAIR      87  31  13 SW22G28   30.10F                  
RATON          FAIR      85  31  14 W12       30.00F                  
CLAYTON        FAIR      94  34  12 SW18G28   29.88F                  

$$
NMZ532>537-180000-
EASTCENTRAL PLAINS
  
CITY           SKY/WX    TMP DP  RH WIND       PRES   REMARKS
TUCUMCARI      FAIR     104  31   8 W14       29.80F HX  97           
CANNON AFB     FAIR     100  36  11 SW10      29.89F                  
CLOVIS AIRPORT FAIR     100  37  11 W14       29.88F HX  95           

$$
NMZ028-029-538-180000-
SOUTHEAST PLAINS
  
CITY           SKY/WX    TMP DP  RH WIND       PRES   REMARKS
ROSWELL        FAIR     104  37  10 S13       29.83F HX  98           
ARTESIA        FAIR     100  46  16 VRB6      29.84F HX  96           
CARLSBAD       FAIR     103  45  14 S8        29.79F HX  99           
HOBBS          SUNNY    100  41  13 S12       29.84F HX  96           


$$